Date String (YYYY-MM-DD hh:mm:ss) UTC,Instrument flags,absolute air pressure of the measurement (hPa),sample flow rate (lpm),inlet stack bypass flow (lpm),air temperature of the measurement (°C),ambient temperature measured by the external sensor (°C),aerosol sample conditioner tube jacket temperature (°C),OPC LED temperature (°C),internal box temperature (°C),relative humidity of the measurement (%),span deviation,mass concentration of particles derived from Lorenz-Mie calculation of OPC scattering (μg/m³),mass concentration of particles derived from Lorenz-Mie calculation of OPC scattering (μg/m³),mass concentration of particles derived from Lorenz-Mie calculation of OPC scattering (μg/m³)
DateTimeUTC,F1_M11,P_M11,Q1_M11,Q2_M11,T1_M11,T2_M11,T3_M11,T4_M11,T5_M11,U1_M11,ZSPAN_M11,X0_M11,X2_M11,X1_M11
2023-12-06 04:00:00,SystemResetWarning,0835.9,4.99,000.00,026.2,025.3,000.0,034.5,027.5,15.0,0003.7,0013.48,0006.06,0005.59
2023-12-06 04:01:00,SystemResetWarning,0836.0,5.00,000.00,026.2,025.3,000.0,034.5,027.5,15.0,0007.1,0013.70,0006.29,0005.80
2023-12-06 04:02:00,SystemResetWarning,0835.9,5.02,000.00,026.2,025.3,000.0,034.5,027.5,15.0,0006.6,0014.02,0006.60,0006.06
2023-12-06 04:03:00,SystemResetWarning,0835.9,4.99,000.00,026.2,025.3,000.0,034.5,027.5,15.1,0006.5,0014.35,0006.86,0006.28
2023-12-06 04:04:00,SystemResetWarning,0835.9,4.99,000.00,026.2,025.3,000.0,034.5,027.5,14.9,0006.6,0014.64,0007.07,0006.46
2023-12-06 04:05:00,SystemResetWarning,0835.9,5.01,000.00,026.2,025.3,000.0,034.5,027.5,15.0,0006.3,0013.92,0007.31,0006.67
2023-12-06 04:06:00,SystemResetWarning,0835.9,5.01,000.00,026.2,025.3,000.0,034.5,027.5,14.9,0005.5,0014.00,0007.58,0006.88
2023-12-06 04:07:00,SystemResetWarning,0835.9,5.00,000.00,026.2,025.3,000.0,034.5,027.5,14.8,0005.5,0014.52,0007.77,0007.04
2023-12-06 04:08:00,SystemResetWarning,0835.9,4.99,000.00,026.2,025.3,000.0,034.5,027.5,14.7,0005.3,0014.63,0007.89,0007.16
2023-12-06 04:09:00,SystemResetWarning,0835.9,5.01,000.00,026.2,025.3,000.0,034.5,027.5,14.3,0005.4,0014.65,0008.02,0007.25
2023-12-06 04:10:00,SystemResetWarning,0835.9,5.02,000.00,026.2,025.2,000.0,034.5,027.4,14.4,0005.7,0014.39,0008.16,0007.34
2023-12-06 04:11:00,SystemResetWarning,0835.9,4.99,000.00,026.2,025.2,000.0,034.5,027.4,14.7,0005.5,0015.44,0008.29,0007.43
2023-12-06 04:12:00,SystemResetWarning,0835.9,4.99,000.00,026.2,025.2,000.0,034.5,027.4,14.7,0005.4,0016.43,0008.33,0007.49
2023-12-06 04:13:00,SystemResetWarning,0835.9,5.01,000.00,026.2,025.1,000.0,034.5,027.4,14.5,0005.5,0016.76,0008.32,0007.49
2023-12-06 04:14:00,SystemResetWarning,0835.9,5.01,000.00,026.1,025.1,000.0,034.5,027.4,14.7,0005.6,0017.86,0008.34,0007.50
2023-12-06 04:15:00,SystemResetWarning,0835.9,5.00,000.00,026.1,025.1,000.0,034.5,027.4,14.6,0005.4,0018.49,0008.33,0007.51
2023-12-06 04:16:00,SystemResetWarning,0835.9,5.00,000.00,026.1,025.1,000.0,034.5,027.3,14.7,0005.2,0019.02,0008.33,0007.47
2023-12-06 04:17:00,SystemResetWarning,0835.8,5.00,000.00,026.1,025.0,000.0,034.5,027.3,14.8,0005.7,0019.03,0008.20,0007.38
2023-12-06 04:18:00,SystemResetWarning,0835.9,5.00,000.00,026.1,025.0,000.0,034.5,027.3,14.8,0006.0,0018.57,0008.04,0007.26
2023-12-06 04:19:00,SystemResetWarning,0835.9,4.99,000.00,026.1,025.0,000.0,034.5,027.3,14.9,0006.2,0018.13,0007.87,0007.11
2023-12-06 04:20:00,SystemResetWarning,0835.9,5.00,000.00,026.0,025.0,000.0,034.5,027.3,15.0,0006.3,0018.01,0007.78,0007.03
2023-12-06 04:21:00,SystemResetWarning,0835.9,5.01,000.00,026.0,025.0,000.0,034.5,027.3,15.1,0006.2,0018.20,0007.70,0006.98
2023-12-06 04:22:00,SystemResetWarning,0835.9,5.00,000.00,026.0,025.0,000.0,034.5,027.3,15.1,0006.1,0017.00,0007.57,0006.87
2023-12-06 04:23:00,SystemResetWarning,0835.9,5.01,000.00,026.0,025.0,000.0,034.5,027.3,15.1,0006.0,0016.32,0007.43,0006.77
2023-12-06 04:24:00,SystemResetWarning,0835.9,5.00,000.00,026.0,025.0,000.0,034.5,027.3,15.0,0006.0,0016.29,0007.34,0006.69
2023-12-06 04:25:00,SystemResetWarning,0835.9,5.01,000.00,026.0,025.0,000.0,034.4,027.3,14.8,0005.6,0015.43,0007.27,0006.61
2023-12-06 04:26:00,SystemResetWarning,0835.9,5.00,000.00,026.0,025.0,000.0,034.4,027.3,14.9,0005.4,0014.84,0007.25,0006.56
2023-12-06 04:27:00,SystemResetWarning,0835.9,4.99,000.00,026.0,025.0,000.0,034.4,027.3,15.0,0005.5,0014.04,0007.17,0006.53
2023-12-06 04:28:00,SystemResetWarning,0835.9,5.00,000.00,026.0,025.0,000.0,034.4,027.3,15.0,0005.1,0013.90,0007.19,0006.56
2023-12-06 04:29:00,SystemResetWarning,0835.9,5.01,000.00,026.0,025.0,000.0,034.4,027.3,15.1,0004.9,0013.70,0007.32,0006.66
2023-12-06 04:30:00,SystemResetWarning,0835.9,5.01,000.00,026.0,025.0,000.0,034.4,027.2,14.9,0004.8,0014.00,0007.52,0006.85
2023-12-06 04:31:00,SystemResetWarning,0835.9,5.00,000.00,026.0,025.0,000.0,034.4,027.2,14.9,0004.3,0013.96,0007.60,0006.93
2023-12-06 04:32:00,SystemResetWarning,0835.9,5.00,000.00,025.9,024.9,000.0,034.4,027.2,15.0,0004.4,0013.28,0007.70,0006.97
2023-12-06 04:33:00,SystemResetWarning,0835.9,5.00,000.00,025.9,024.9,000.0,034.4,027.2,15.0,0004.4,0013.59,0007.82,0007.04
2023-12-06 04:34:00,SystemResetWarning,0835.9,4.99,000.00,025.9,024.9,000.0,034.4,027.2,15.0,0005.0,0013.51,0007.92,0007.09
2023-12-06 04:35:00,SystemResetWarning,0835.8,4.99,000.00,025.9,024.9,000.0,034.4,027.2,15.0,0005.2,0013.48,0007.96,0007.11
2023-12-06 04:36:00,SystemResetWarning,0835.8,4.99,000.00,025.9,024.9,000.0,034.4,027.1,15.0,0005.5,0014.08,0008.02,0007.20
2023-12-06 04:37:00,SystemResetWarning,0835.8,5.00,000.00,025.9,024.9,000.0,034.4,027.2,14.9,0005.6,0014.03,0008.05,0007.24
2023-12-06 04:38:00,SystemResetWarning,0835.8,5.00,000.00,025.9,024.9,000.0,034.3,027.1,14.9,0005.8,0014.06,0008.10,0007.31
2023-12-06 04:39:00,SystemResetWarning,0835.8,5.00,000.00,025.9,024.8,000.0,034.3,027.1,15.1,0005.9,0013.92,0008.10,0007.32
2023-12-06 04:40:00,SystemResetWarning,0835.8,5.01,000.00,025.9,024.8,000.0,034.3,027.2,15.1,0006.0,0014.95,0008.04,0007.27
2023-12-06 04:41:00,SystemResetWarning,0835.8,5.01,000.00,025.8,024.8,000.0,034.3,027.1,14.8,0005.8,0015.57,0008.02,0007.25
2023-12-06 04:42:00,SystemResetWarning,0835.8,4.99,000.00,025.8,024.8,000.0,034.3,027.1,14.9,0005.7,0015.77,0007.97,0007.23
2023-12-06 04:43:00,SystemResetWarning,0835.8,4.99,000.00,025.8,024.8,000.0,034.3,027.1,14.9,0005.4,0015.58,0007.89,0007.19
2023-12-06 04:44:00,SystemResetWarning,0835.8,5.01,000.00,025.8,024.7,000.0,034.3,027.1,15.0,0005.4,0015.14,0007.83,0007.18
2023-12-06 04:45:00,SystemResetWarning,0835.8,5.02,000.00,025.8,024.7,000.0,034.3,027.1,15.0,0005.1,0015.03,0007.81,0007.20
2023-12-06 04:46:00,SystemResetWarning,0835.8,5.00,000.00,025.8,024.8,000.0,034.3,027.1,14.9,0004.9,0014.89,0007.80,0007.20
2023-12-06 04:47:00,SystemResetWarning,0835.9,4.99,000.00,025.8,024.8,000.0,034.3,027.1,14.5,0004.8,0014.06,0007.71,0007.13
2023-12-06 04:48:00,SystemResetWarning,0835.8,5.00,000.00,025.8,024.8,000.0,034.3,027.1,14.3,0004.7,0014.21,0007.69,0007.11
2023-12-06 04:49:00,SystemResetWarning,0835.8,5.00,000.00,025.8,024.7,000.0,034.2,027.1,14.2,0004.6,0014.91,0007.69,0007.10
2023-12-06 04:50:00,SystemResetWarning,0835.8,4.99,000.00,025.8,024.7,000.0,034.2,027.1,14.1,0004.7,0014.97,0007.66,0007.07
2023-12-06 04:51:00,SystemResetWarning,0835.7,5.00,000.00,025.8,024.7,000.0,034.2,027.0,14.3,0004.8,0013.72,0007.65,0007.05
2023-12-06 04:52:00,SystemResetWarning,0835.7,5.00,000.00,025.7,024.7,000.0,034.2,027.0,14.4,0004.9,0013.14,0007.58,0006.99
2023-12-06 04:53:00,SystemResetWarning,0835.7,5.01,000.00,025.7,024.7,000.0,034.2,027.0,14.3,0004.9,0013.75,0007.60,0006.97
2023-12-06 04:54:00,SystemResetWarning,0835.7,5.01,000.00,025.7,024.6,000.0,034.2,027.0,13.9,0005.0,0014.28,0007.59,0006.96
2023-12-06 04:55:00,SystemResetWarning,0835.8,5.00,000.00,025.7,024.6,000.0,034.2,027.0,13.9,0005.3,0014.60,0007.54,0006.92
2023-12-06 04:56:00,SystemResetWarning,0835.6,5.00,000.00,025.7,024.6,000.0,034.2,027.0,13.9,0005.7,0014.06,0007.42,0006.79
2023-12-06 04:57:00,SystemResetWarning,0835.6,4.99,000.00,025.7,024.6,000.0,034.2,026.9,13.9,0005.9,0013.42,0007.22,0006.62
2023-12-06 04:58:00,SystemResetWarning,0835.6,4.99,000.00,025.7,024.6,000.0,034.2,026.9,13.7,0006.0,0013.89,0007.07,0006.47
2023-12-06 04:59:00,SystemResetWarning,0835.6,5.00,000.00,025.7,024.6,000.0,034.1,026.9,13.6,0006.0,0013.69,0006.86,0006.26
